[[{"header":{"parameterUnit":"m.s-1","parameterCategory":1,"la1":30.2991,"la2":30.254,"lo1":-89.0895,"lo2":-89.0444,"dy":0.0017,"dx":0.0017,"nx":28,"ny":28,"refTime":"2024-08-03T21:00:00:Z","depth":0,"parameterNumber":2,"parameterNumberName":"U-component_of_WINDS"},"data":[0,0,0,0,0,0,0,0,0,0,0,0,0,0,0,0,0,0,0,0,0,0,0,0,0,0,0,0,0,0,0,0,0,0,0,0,0,0,0,0,0,0,0,0,0,0,0,0,0,0,0,0,0,0,0,0,0,0,-3.3794,-3.3794,0,-3.3786,-3.3786,-3.3786,-3.3724,-3.3722,-3.3721,-3.3719,-3.3712,-3.3714,-3.3715,0,0,0,0,0,0,0,0,0,0,0,0,0,-3.3758,-3.3759,-3.3794,-3.3794,-3.3794,-3.3786,-3.3786,-3.3786,-3.3724,-3.3722,-3.372,-3.3719,-3.3712,-3.3713,-3.3715,0,0,0,0,0,0,0,0,0,0,0,0,0,-3.3764,-3.3759,-3.3794,-3.3762,-3.3759,-3.3786,-3.3786,-3.3786,-3.3725,-3.3722,-3.372,-3.3718,-3.3711,-3.3713,-3.3715,-3.3773,0,0,-3.3721,-3.3722,0,0,0,0,0,0,0,0,-3.3764,-3.3766,-3.3767,-3.3764,-3.3761,-3.3754,-3.3771,-3.3782,-3.3725,-3.3738,-3.3719,-3.3717,-3.3728,-3.3728,-3.3732,-3.3773,-3.3772,-3.3721,-3.3722,-3.3723,-3.3723,0,0,0,0,0,0,0,-3.3763,-3.3766,-3.3791,-3.3767,-3.3763,-3.3749,-3.3747,-3.3773,-3.3746,-3.3736,-3.3732,-3.3732,-3.3726,-3.373,-3.3731,-3.3772,-3.3721,-3.3723,-3.3724,-3.3724,-3.3864,-3.3866,0,0,0,0,0,0,-3.3767,-3.3766,-3.3791,-3.3791,-3.3757,-3.3751,-3.375,-3.3758,-3.3745,-3.3741,-3.3734,-3.3729,-3.3728,-3.3729,-3.3731,-3.38,-3.3723,-3.3725,-3.3726,-3.3861,-3.3864,-3.3867,0,0,0,0,0,0,-3.3767,-3.377,-3.3792,-3.3777,-3.3779,-3.3755,-3.3765,-3.376,-3.3764,-3.3743,-3.3739,-3.3743,-3.3727,-3.3728,-3.3764,-3.3799,-3.3726,-3.3727,-3.3858,-3.3862,-3.3866,-3.3938,0,0,0,0,0,0,-3.3766,-3.377,-3.3791,-3.3778,-3.378,-3.3824,-3.3767,-3.3761,-3.3767,-3.3761,-3.3751,-3.3747,-3.3725,-3.3761,-3.3766,-3.38,-3.3729,-3.3855,-3.386,-3.3864,-3.3933,-3.3944,-3.3954,0,0,0,0,0,-3.3765,-3.3811,-3.3793,-3.3796,-3.3805,-3.3826,-3.3827,-3.38,-3.377,-3.3792,-3.3779,-3.3747,-3.3794,-3.3765,-3.377,-3.3806,-3.3852,-3.3858,-3.3864,-3.3928,-3.3942,-3.3954,0,0,0,0,0,0,-3.3828,-3.3809,-3.3788,-3.3831,-3.3831,-3.3815,-3.3841,-3.3815,-3.3824,-3.3817,-3.3784,-3.3783,-3.3824,-3.3818,-3.3786,-3.3863,-3.3818,-3.3825,-3.3865,-3.3878,-3.3889,-3.389,-3.373,0,0,0,0,0,-3.3848,-3.3866,-3.3848,-3.3888,-3.3889,-3.3866,-3.3873,-3.3853,-3.3852,-3.3851,-3.3841,-3.3841,-3.3856,-3.3867,-3.3879,-3.3931,-3.393,-3.3958,-3.3969,-3.3978,-3.3985,-3.4015,-3.4029,-3.3886,-3.3886,-3.3886,0,0,-3.3887,-3.3879,-3.3892,-3.39,-3.3898,-3.3919,-3.3866,-3.3889,-3.3904,-3.3854,-3.3888,-3.3881,-3.3879,-3.3924,-3.3943,-3.3921,-3.4024,-3.3985,-3.3993,-3.3995,-3.4023,-3.4036,-3.4048,-3.389,-3.3889,-3.3889,0,0,-3.3971,-3.3965,-3.3999,-3.3998,-3.3995,-3.398,-3.3989,-3.3978,-3.3971,-3.4005,-3.3969,-3.3987,-3.4013,-3.4014,-3.4018,-3.4106,-3.4078,-3.411,-3.4167,-3.4197,-3.4208,-3.4218,-3.4252,-3.4264,-3.4117,-3.4117,-3.4117,0,-3.402,-3.4049,-3.402,-3.4047,-3.4053,-3.4009,-3.4045,-3.4046,-3.4047,-3.4053,-3.4027,-3.4061,-3.4056,-3.4103,-3.4125,-3.4128,-3.4139,-3.4112,-3.4209,-3.4218,-3.4227,-3.4259,-3.4272,-3.4121,-3.4121,-3.4121,-3.412,0,-3.4112,-3.4133,-3.4161,-3.4165,-3.4174,-3.4205,-3.4182,-3.4195,-3.4175,-3.4163,-3.4199,-3.4192,-3.4204,-3.4214,-3.4193,-3.4258,-3.4245,-3.4214,-3.4169,-3.4246,-3.4275,-3.4287,-3.4127,-3.4126,-3.4125,-3.4124,0,0,-3.4234,-3.4223,-3.4234,-3.4237,-3.4232,-3.4248,-3.4278,-3.429,-3.4304,-3.4307,-3.4333,-3.4357,-3.433,-3.4335,-3.4315,-3.4341,-3.4415,-3.4308,-3.4308,-3.433,-3.4489,-3.4514,-3.4528,-3.4396,-3.4398,-3.44,-3.4491,0,-3.4316,-3.4367,-3.4343,-3.4397,-3.4418,-3.4378,-3.4405,-3.4406,-3.4396,-3.4414,-3.4403,-3.4422,-3.4383,-3.4387,-3.4411,-3.4401,-3.4447,-3.4394,-3.4422,-3.4423,-3.4426,-3.4543,-3.4568,-3.4654,-3.4502,-3.4503,-3.4505,0,-3.4417,-3.4427,-3.4483,-3.4478,-3.4486,-3.451,-3.4521,-3.4537,-3.4539,-3.453,-3.4537,-3.4512,-3.4543,-3.4498,-3.4542,-3.4507,-3.4517,-3.4514,-3.4517,-3.452,-3.447,-3.4551,-3.468,-3.4694,-3.4522,-3.4521,-3.452,0,-3.4504,-3.453,-3.4568,-3.4571,-3.4565,-3.4584,-3.4582,-3.4581,-3.4591,-3.4601,-3.4608,-3.4621,-3.4629,-3.464,-3.4621,-3.4589,-3.4669,-3.4621,-3.4665,-3.4665,-3.4684,-3.4683,-3.4818,-3.4688,-3.4687,-3.4687,-3.4687,0,-3.4599,-3.4636,-3.4607,-3.4631,-3.4672,-3.4645,-3.4687,-3.4681,-3.4681,-3.4704,-3.467,-3.4693,-3.4665,-3.4685,-3.467,-3.4711,-3.4714,-3.4709,-3.4705,-3.4713,-3.4714,-3.472,-3.4715,-3.469,-3.469,-3.4689,-3.4689,0,-3.4702,-3.4684,-3.4724,-3.4716,-3.4715,-3.4746,-3.4739,-3.4762,-3.4751,-3.4781,-3.4786,-3.4769,-3.4792,-3.4773,-3.4794,-3.4785,-3.484,-3.4826,-3.4839,-3.4836,-3.4882,-3.4879,-3.5027,-3.5047,-3.4902,-3.4903,-3.4904,0,-3.4765,-3.4792,-3.4788,-3.4802,-3.4802,-3.4824,-3.4834,-3.481,-3.4822,-3.4828,-3.4851,-3.4871,-3.4885,-3.4924,-3.4914,-3.4932,-3.4919,-3.497,-3.4922,-3.4931,-3.4923,-3.4923,-3.4927,-3.4981,-3.4982,-3.4984,-3.4985,0,-3.4878,-3.4869,-3.4886,-3.4901,-3.4915,-3.4925,-3.4932,-3.4945,-3.492,-3.4937,-3.496,-3.4972,-3.4995,-3.5017,-3.5031,-3.5031,-3.5005,-3.5,-3.5012,-3.5021,-3.5029,-3.5028,-3.4869,-3.4997,-3.4996,-3.4995,-3.4994,-3.4994,-3.4965,-3.4989,-3.4991,-3.5011,-3.5015,-3.5024,-3.5045,-3.5038,-3.5057,-3.5074,-3.5059,-3.5088,-3.5091,-3.5108,-3.5112,-3.5135,-3.5114,-3.513,-3.5134,-3.5139,-3.5147,-3.5024,-3.5137,-3.5137,-3.5137,-3.5136,-3.5136,0,-3.5079,-3.5079,-3.5098,-3.5111,-3.5128,-3.5102,-3.511,-3.5126,-3.5152,-3.5158,-3.5174,-3.5202,-3.5224,-3.5217,-3.5236,-3.5257,-3.5246,-3.5263,-3.5262,-3.5263,-3.5163,-3.5153,-3.5272,-3.5272,-3.5272,-3.5272,-3.5272,-3.5272,-3.514,-3.5181,-3.5173,-3.5216,-3.5215,-3.5244,-3.5251,-3.526,-3.5265,-3.5298,-3.5316,-3.5311,-3.5313,-3.5333,-3.5352,-3.535,-3.536,-3.5382,-3.5376,-3.5283,-3.527,-3.5257,-3.5247,-3.5384,-3.5384,-3.5474,-3.5475,-3.5475]},{"header":{"parameterUnit":"m.s-1","parameterCategory":1,"la1":30.2991,"la2":30.254,"lo1":-89.0895,"lo2":-89.0444,"dy":0.0017,"dx":0.0017,"nx":28,"ny":28,"refTime":"2024-08-03T21:00:00:Z","depth":0,"parameterNumber":3,"parameterNumberName":"V-component_of_WINDS"},"data":[0,0,0,0,0,0,0,0,0,0,0,0,0,0,0,0,0,0,0,0,0,0,0,0,0,0,0,0,0,0,0,0,0,0,0,0,0,0,0,0,0,0,0,0,0,0,0,0,0,0,0,0,0,0,0,0,0,0,-0.8388,-0.8387,0,-0.8303,-0.8302,-0.8301,-0.8237,-0.8237,-0.8236,-0.8236,-0.8149,-0.8147,-0.8145,0,0,0,0,0,0,0,0,0,0,0,0,0,-0.8496,-0.8494,-0.8388,-0.8387,-0.8386,-0.8304,-0.8302,-0.8301,-0.8237,-0.8237,-0.8236,-0.8235,-0.8149,-0.8147,-0.8145,0,0,0,0,0,0,0,0,0,0,0,0,0,-0.8434,-0.8494,-0.8388,-0.8344,-0.834,-0.8304,-0.8302,-0.8301,-0.8237,-0.8237,-0.8236,-0.8235,-0.815,-0.8147,-0.8145,-0.8146,0,0,-0.8137,-0.8135,0,0,0,0,0,0,0,0,-0.8438,-0.843,-0.8352,-0.8347,-0.8342,-0.828,-0.8308,-0.8249,-0.8238,-0.8276,-0.8235,-0.8234,-0.8193,-0.8187,-0.8173,-0.8142,-0.8138,-0.8136,-0.8135,-0.8134,-0.8133,0,0,0,0,0,0,0,-0.8442,-0.8433,-0.8355,-0.8351,-0.8345,-0.8329,-0.8319,-0.8297,-0.8241,-0.8273,-0.8268,-0.8259,-0.819,-0.8176,-0.817,-0.8137,-0.8136,-0.8134,-0.8132,-0.8131,-0.8105,-0.8106,0,0,0,0,0,0,-0.8453,-0.8437,-0.8357,-0.8352,-0.8389,-0.8328,-0.8317,-0.8301,-0.8241,-0.8231,-0.826,-0.8256,-0.818,-0.8173,-0.8167,-0.8166,-0.8134,-0.8131,-0.813,-0.8104,-0.8105,-0.8106,0,0,0,0,0,0,-0.8456,-0.8447,-0.8361,-0.8393,-0.8381,-0.8327,-0.8309,-0.83,-0.8285,-0.8231,-0.822,-0.8255,-0.8179,-0.8171,-0.8152,-0.8162,-0.813,-0.8128,-0.8103,-0.8104,-0.8105,-0.8164,0,0,0,0,0,0,-0.8459,-0.8448,-0.8448,-0.8394,-0.838,-0.8347,-0.831,-0.8299,-0.828,-0.8275,-0.8224,-0.8214,-0.8178,-0.8156,-0.815,-0.8158,-0.8125,-0.8102,-0.8103,-0.8105,-0.8161,-0.8167,-0.8173,0,0,0,0,0,-0.8463,-0.8467,-0.8448,-0.8439,-0.8378,-0.8348,-0.834,-0.8298,-0.8282,-0.8281,-0.8247,-0.8216,-0.8162,-0.8155,-0.8147,-0.8155,-0.8101,-0.8103,-0.8105,-0.8158,-0.8166,-0.8172,0,0,0,0,0,0,-0.8523,-0.8459,-0.8437,-0.8424,-0.8392,-0.8337,-0.8336,-0.8307,-0.828,-0.8276,-0.8225,-0.8214,-0.8201,-0.8175,-0.8169,-0.8154,-0.8128,-0.8128,-0.8171,-0.8178,-0.8184,-0.8191,-0.8123,0,0,0,0,0,-0.8535,-0.8515,-0.846,-0.8454,-0.8439,-0.839,-0.8375,-0.8346,-0.8311,-0.8297,-0.8261,-0.8228,-0.8204,-0.8189,-0.8164,-0.8156,-0.8145,-0.8158,-0.8164,-0.8169,-0.817,-0.8166,-0.8172,-0.8112,-0.8112,-0.8112,0,0,-0.8558,-0.8521,-0.8512,-0.8465,-0.8437,-0.8419,-0.8379,-0.8361,-0.8347,-0.8294,-0.8275,-0.8248,-0.8208,-0.8196,-0.8188,-0.8174,-0.8184,-0.8171,-0.8176,-0.8174,-0.8169,-0.8175,-0.818,-0.8114,-0.8114,-0.8113,0,0,-0.8593,-0.8562,-0.8555,-0.8527,-0.8486,-0.8453,-0.8451,-0.8401,-0.8381,-0.8361,-0.8321,-0.8304,-0.8263,-0.8237,-0.8218,-0.8244,-0.8216,-0.8237,-0.8268,-0.8265,-0.827,-0.8274,-0.8285,-0.829,-0.8238,-0.8239,-0.8239,0,-0.8629,-0.8599,-0.8554,-0.8539,-0.852,-0.8472,-0.8464,-0.844,-0.8392,-0.838,-0.8364,-0.8313,-0.8282,-0.8264,-0.8271,-0.8257,-0.8254,-0.8244,-0.8273,-0.8276,-0.8279,-0.829,-0.8294,-0.8242,-0.8241,-0.8241,-0.8241,0,-0.8646,-0.8626,-0.8625,-0.8581,-0.8561,-0.855,-0.8504,-0.849,-0.8463,-0.8432,-0.8413,-0.8375,-0.8342,-0.8335,-0.8307,-0.8313,-0.8306,-0.8282,-0.8255,-0.8289,-0.8298,-0.8301,-0.8246,-0.8245,-0.8244,-0.8243,0,0,-0.8717,-0.8648,-0.8649,-0.8629,-0.8579,-0.8564,-0.855,-0.8518,-0.8508,-0.8477,-0.8465,-0.8432,-0.841,-0.8389,-0.8358,-0.8355,-0.8381,-0.8332,-0.833,-0.8344,-0.8388,-0.8408,-0.8413,-0.8361,-0.8362,-0.8362,-0.8392,0,-0.8745,-0.872,-0.8679,-0.8667,-0.8649,-0.8603,-0.8592,-0.8561,-0.8532,-0.8513,-0.8481,-0.8459,-0.8431,-0.8418,-0.8413,-0.8379,-0.839,-0.8376,-0.8352,-0.8351,-0.8366,-0.8417,-0.8438,-0.8468,-0.8395,-0.8395,-0.8396,0,-0.8775,-0.8748,-0.8734,-0.8688,-0.8679,-0.867,-0.8638,-0.862,-0.8584,-0.8563,-0.854,-0.8507,-0.8492,-0.8466,-0.8445,-0.8437,-0.8424,-0.8406,-0.8406,-0.8404,-0.8377,-0.8419,-0.8477,-0.8482,-0.84,-0.84,-0.84,0,-0.8832,-0.879,-0.8778,-0.8762,-0.8706,-0.8701,-0.8678,-0.8641,-0.8625,-0.8597,-0.8586,-0.8557,-0.8541,-0.8519,-0.8479,-0.8464,-0.8463,-0.8434,-0.8447,-0.8448,-0.8451,-0.8451,-0.851,-0.8439,-0.8439,-0.8439,-0.8439,0,-0.8869,-0.8864,-0.8802,-0.8795,-0.8787,-0.8741,-0.8734,-0.8707,-0.8675,-0.8661,-0.8618,-0.8607,-0.8553,-0.8536,-0.8504,-0.8493,-0.8485,-0.8469,-0.8461,-0.8474,-0.8477,-0.8467,-0.8465,-0.844,-0.8439,-0.8439,-0.8439,0,-0.8932,-0.889,-0.8874,-0.8823,-0.881,-0.8807,-0.8764,-0.8755,-0.8723,-0.8707,-0.8701,-0.8652,-0.8629,-0.8586,-0.8551,-0.853,-0.8526,-0.8511,-0.8539,-0.8534,-0.8551,-0.8551,-0.8607,-0.8613,-0.8536,-0.8537,-0.8538,0,-0.896,-0.8954,-0.8903,-0.8892,-0.887,-0.8851,-0.8835,-0.8789,-0.8774,-0.8733,-0.873,-0.8704,-0.8681,-0.8646,-0.8608,-0.8581,-0.8566,-0.8587,-0.8562,-0.8576,-0.857,-0.8572,-0.8572,-0.8594,-0.8595,-0.8596,-0.8597,0,-0.9015,-0.8995,-0.8973,-0.8945,-0.8927,-0.8902,-0.8875,-0.8867,-0.8815,-0.88,-0.8777,-0.8759,-0.8724,-0.8699,-0.8667,-0.8643,-0.8612,-0.8605,-0.8607,-0.8622,-0.8639,-0.8633,-0.8557,-0.8604,-0.8604,-0.8603,-0.8603,-0.8602,-0.9062,-0.9056,-0.902,-0.8998,-0.8972,-0.8949,-0.8939,-0.8906,-0.8886,-0.8854,-0.8828,-0.8807,-0.8772,-0.8726,-0.8704,-0.8687,-0.8672,-0.8675,-0.8676,-0.8678,-0.8685,-0.864,-0.8681,-0.8681,-0.868,-0.868,-0.868,0,-0.9117,-0.9092,-0.9072,-0.9036,-0.9019,-0.899,-0.8959,-0.8947,-0.8929,-0.8899,-0.8878,-0.8852,-0.8828,-0.8788,-0.876,-0.8755,-0.874,-0.875,-0.8751,-0.8747,-0.8698,-0.87,-0.8762,-0.8762,-0.8762,-0.8762,-0.8762,-0.8762,-0.9144,-0.9133,-0.9109,-0.9086,-0.906,-0.904,-0.9025,-0.9003,-0.8979,-0.8952,-0.8932,-0.8906,-0.8873,-0.8843,-0.882,-0.8809,-0.8802,-0.8816,-0.8801,-0.8757,-0.875,-0.8742,-0.8744,-0.8815,-0.8815,-0.8851,-0.8851,-0.8852]}]]